New York, NY

12:49 AM EDT on September 22, 2017 (GMT -0400)
La Guardia

Weather History for KLGA - August, 2014

Change the Weather History Date:

Sunday, August 10, 2014

  Actual Average Record
Temperature  
Mean Temperature 79 °F 77 °F  
Max Temperature 87 °F 85 °F 99 °F (1949)
Min Temperature 71 °F 70 °F 57 °F (1962)
Degree Days  
Heating Degree Days 0 0  
Month to date heating degree days 0 0  
Since 1 June heating degree days 0 16  
Since 1 July heating degree days 0 0  
Cooling Degree Days 14 12  
Month to date cooling degree days 114 124  
Year to date cooling degree days 778 806  
Since 1 June cooling degree days 728 740  
Growing Degree Days 29 (Base 50)    
Moisture  
Dew Point 57 °F    
Average Humidity 53    
Maximum Humidity 73    
Minimum Humidity 32    
Precipitation  
Precipitation 0.00 in 0.14 in 1.91 in (2006)
Month to date precipitation 0.47 1.46  
Year to date precipitation 32.03 27.59  
Snow  
Snow 0.00 in 0.00 in - ()
Month to date snowfall 0.0 0.0  
Since 1 July snowfall 0.0 0.0  
Snow Depth 0.00 in    
Sea Level Pressure  
Sea Level Pressure 30.11 in    
Wind  
Wind Speed 7 mph (East)    
Max Wind Speed 12 mph    
Max Gust Speed 20 mph    
Visibility 10 miles    
Events      
T = Trace of Precipitation, MM = Missing Value Source: NWS Daily Summary

Daily Weather History Graph

Daily Weather History Graph

Search for Another Location

Airport or City:

Trip Planner

Search our weather history database for the weather conditions in past years. The results will help you decide how hot, cold, wet, or windy it might be!

Date:

Astronomy

Aug. 10, 2014 Rise Set
Actual Time 6:00 AM EDT 8:00 PM EDT
Civil Twilight 5:30 AM EDT 8:30 PM EDT
Nautical Twilight 4:54 AM EDT 9:06 PM EDT
Astronomical Twilight 4:14 AM EDT 9:45 PM EDT
Moon 7:44 PM EDT (8/10) 5:50 AM EDT (8/10)
Length of Visible Light 14h 59m
Length of Day
13h 59m
Full, 100% of the Moon is Illuminated
Aug 10
Full
Aug 10
Full
Aug 17
Last Quarter
Aug 25
New
Sep 2
First Quarter

Hourly Weather History & Observations

Time (EDT) Temp. Heat Index Dew Point Humidity Pressure Visibility Wind Dir Wind Speed Gust Speed Precip Events Conditions
12:51 AM 77.0 °F - 59.0 °F 54% 30.11 in 10.0 mi Calm Calm - N/A   Partly Cloudy
1:51 AM 75.9 °F - 57.9 °F 54% 30.09 in 10.0 mi SW 3.5 mph - N/A   Partly Cloudy
2:51 AM 73.9 °F - 61.0 °F 64% 30.10 in 10.0 mi NW 8.1 mph - N/A   Partly Cloudy
3:51 AM 73.0 °F - 59.0 °F 61% 30.10 in 10.0 mi WNW 4.6 mph - N/A   Scattered Clouds
4:51 AM 72.0 °F - 61.0 °F 68% 30.10 in 10.0 mi NNE 4.6 mph - N/A   Scattered Clouds
5:51 AM 71.1 °F - 63.0 °F 75% 30.12 in 10.0 mi NE 3.5 mph - N/A   Scattered Clouds
6:51 AM 72.0 °F - 63.0 °F 73% 30.13 in 10.0 mi Calm Calm - N/A   Scattered Clouds
7:51 AM 73.0 °F - 59.0 °F 61% 30.13 in 10.0 mi NE 3.5 mph - N/A   Scattered Clouds
8:51 AM 75.0 °F - 57.0 °F 53% 30.14 in 10.0 mi ENE 5.8 mph - N/A   Scattered Clouds
9:51 AM 77.0 °F - 57.2 °F 50% 30.13 in 10.0 mi ENE 8.1 mph - N/A   Scattered Clouds
10:51 AM 80.1 °F 80.2 °F 55.9 °F 43% 30.13 in 10.0 mi ENE 9.2 mph - N/A   Scattered Clouds
11:51 AM 82.0 °F 81.6 °F 55.9 °F 41% 30.13 in 10.0 mi ENE 6.9 mph - N/A   Mostly Cloudy
12:51 PM 84.9 °F 83.2 °F 53.1 °F 33% 30.13 in 10.0 mi ENE 10.4 mph - N/A   Mostly Cloudy
1:51 PM 84.9 °F - 51.1 °F 31% 30.12 in 10.0 mi NE 8.1 mph - N/A   Mostly Cloudy
2:51 PM 86.0 °F 84.0 °F 53.1 °F 32% 30.10 in 10.0 mi NE 8.1 mph - N/A   Scattered Clouds
3:51 PM 84.9 °F 83.2 °F 53.1 °F 33% 30.09 in 10.0 mi NE 6.9 mph - N/A   Mostly Cloudy
4:51 PM 84.2 °F 82.8 °F 53.6 °F 35% 30.08 in 10.0 mi SSE 9.2 mph - N/A   Mostly Cloudy
5:51 PM 84.0 °F 82.5 °F 53.1 °F 34% 30.09 in 10.0 mi South 8.1 mph - N/A   Mostly Cloudy
6:51 PM 82.9 °F 81.8 °F 53.1 °F 36% 30.08 in 10.0 mi South 9.2 mph - N/A   Scattered Clouds
7:51 PM 80.6 °F 80.5 °F 55.4 °F 42% 30.08 in 10.0 mi South 9.2 mph - N/A   Clear
8:51 PM 79.0 °F - 55.0 °F 44% 30.09 in 10.0 mi South 8.1 mph - N/A   Partly Cloudy
9:51 PM 79.0 °F - 55.0 °F 44% 30.10 in 10.0 mi South 8.1 mph - N/A   Clear
10:51 PM 79.0 °F - 55.9 °F 45% 30.11 in 10.0 mi SSW 3.5 mph - N/A   Clear
11:51 PM 77.0 °F - 60.1 °F 56% 30.11 in 10.0 mi SSW 4.6 mph - N/A   Clear